| time (UTC) | temp F | wind direction | speed knots | gust knots | rain 1hr in | rain 24hr in | rain mn in | humidity % | barometer mb |
| 20260504173542 | 79 | 52 | 0.0 | 0.9 | 0.00 | 0.00 | 0.00 | 48 | 1017.4 |
| 20260504173040 | 77 | 312 | 0.0 | 0.9 | 0.00 | 0.00 | 0.00 | 48 | 1017.6 |
| 20260504172536 | 77 | 350 | 0.0 | 0.9 | 0.00 | 0.00 | 0.00 | 50 | 1017.4 |
| 20260504172032 | 77 | 261 | 2.6 | 2.6 | 0.00 | 0.00 | 0.00 | 47 | 1017.5 |
| 20260504171529 | 79 | 72 | 1.7 | 2.6 | 0.00 | 0.00 | 0.00 | 46 | 1017.6 |
| 20260504171026 | 78 | 194 | 1.7 | 1.7 | 0.00 | 0.00 | 0.00 | 49 | 1017.6 |
| 20260504170522 | 77 | 290 | 1.7 | 2.6 | 0.00 | 0.00 | 0.00 | 48 | 1017.6 |
| 20260504160442 | 77 | 35 | 0.9 | 0.9 | 0.00 | 0.00 | 0.00 | 46 | 1018.0 |
| 20260504150906 | 73 | 332 | 0.9 | 1.7 | 0.00 | 0.00 | 0.00 | 56 | 1018.6 |
| 20260504150403 | 73 | 325 | 0.9 | 0.9 | 0.00 | 0.00 | 0.00 | 54 | 1018.3 |
| 20260504141333 | 69 | 301 | 1.7 | 1.7 | 0.00 | 0.00 | 0.00 | 71 | 1018.3 |
| 20260504140829 | 68 | 237 | 2.6 | 2.6 | 0.00 | 0.00 | 0.00 | 72 | 1018.3 |
| 20260504140325 | 67 | 330 | 0.0 | 0.0 | 0.00 | 0.00 | 0.00 | 76 | 1018.3 |
| 20260504130754 | 59 | 341 | 0.0 | 0.0 | 0.00 | 0.00 | 0.00 | 99 | 1018.5 |
| 20260504130250 | 58 | 341 | 0.0 | 0.0 | 0.00 | 0.00 | 0.00 | 99 | 1018.3 |
| 20260504120214 | 52 | 341 | 0.0 | 0.0 | 0.00 | 0.00 | 0.00 | 99 | 1017.9 |
| 20260504110641 | 51 | 340 | 0.0 | 0.0 | 0.00 | 0.00 | 0.00 | 99 | 1017.7 |
| 20260504110137 | 51 | 340 | 0.0 | 0.0 | 0.00 | 0.00 | 0.00 | 99 | 1017.8 |
| 20260504100603 | 51 | 340 | 0.0 | 0.0 | 0.00 | 0.00 | 0.00 | 99 | 1017.7 |
| 20260504081956 | 54 | 340 | 0.0 | 0.0 | 0.00 | 0.00 | 0.00 | 99 | 1017.5 |
| 20260504081454 | 54 | 340 | 0.0 | 0.0 | 0.00 | 0.00 | 0.00 | 99 | 1017.8 |
| 20260504080949 | 54 | 340 | 0.0 | 0.0 | 0.00 | 0.00 | 0.00 | 99 | 1017.9 |
| 20260504080446 | 54 | 340 | 0.0 | 0.0 | 0.00 | 0.00 | 0.00 | 99 | 1017.8 |
| 20260504050253 | 55 | 340 | 0.0 | 0.0 | 0.00 | 0.00 | 0.00 | 99 | 1019.2 |
| 20260504045750 | 55 | 341 | 0.0 | 0.0 | 0.00 | 0.00 | 0.00 | 99 | 1019.1 |
| 20260504045244 | 55 | 341 | 0.0 | 0.0 | 0.00 | 0.00 | 0.00 | 99 | 1019.0 |
| 20260504044742 | 56 | 341 | 0.0 | 0.0 | 0.00 | 0.00 | 0.00 | 99 | 1019.1 |
| 20260504044239 | 56 | 340 | 0.0 | 0.0 | 0.00 | 0.00 | 0.00 | 99 | 1019.2 |
| 20260504043736 | 56 | 340 | 0.0 | 0.0 | 0.00 | 0.00 | 0.00 | 99 | 1019.1 |
| 20260504043233 | 56 | 340 | 0.0 | 0.0 | 0.00 | 0.00 | 0.00 | 99 | 1019.1 |
| 20260504042732 | 56 | 340 | 0.0 | 0.0 | 0.00 | 0.00 | 0.00 | 99 | 1019.0 |
| 20260504042227 | 56 | 340 | 0.0 | 0.0 | 0.00 | 0.00 | 0.00 | 99 | 1019.2 |
| 20260504041723 | 56 | 340 | 0.0 | 0.0 | 0.00 | 0.00 | 0.00 | 99 | 1019.3 |
| 20260504041220 | 56 | 340 | 0.0 | 0.0 | 0.00 | 0.00 | 0.00 | 99 | 1019.1 |
| 20260504040716 | 57 | 340 | 0.0 | 0.0 | 0.00 | 0.00 | 0.00 | 99 | 1019.3 |
| 20260504040214 | 57 | 340 | 0.0 | 0.0 | 0.00 | 0.00 | 0.00 | 99 | 1019.2 |
| 20260504035710 | 57 | 340 | 0.0 | 0.0 | 0.00 | 0.00 | 0.00 | 99 | 1019.2 |
| 20260504035208 | 57 | 340 | 0.0 | 0.0 | 0.00 | 0.00 | 0.00 | 98 | 1019.0 |
| 20260504034705 | 57 | 340 | 0.0 | 0.0 | 0.00 | 0.00 | 0.00 | 98 | 1019.1 |
| 20260504034202 | 57 | 340 | 0.0 | 0.0 | 0.00 | 0.00 | 0.00 | 98 | 1019.3 |
| 20260504033659 | 57 | 340 | 0.0 | 0.0 | 0.00 | 0.00 | 0.00 | 98 | 1019.1 |
| 20260504033156 | 57 | 340 | 0.0 | 0.0 | 0.00 | 0.00 | 0.00 | 97 | 1019.1 |
| 20260504032653 | 58 | 340 | 0.0 | 0.0 | 0.00 | 0.00 | 0.00 | 97 | 1019.2 |
| 20260504032151 | 58 | 340 | 0.0 | 0.0 | 0.00 | 0.00 | 0.00 | 97 | 1019.2 |
| 20260504031647 | 58 | 340 | 0.0 | 0.0 | 0.00 | 0.00 | 0.00 | 96 | 1019.0 |
| 20260504031144 | 58 | 340 | 0.0 | 0.0 | 0.00 | 0.00 | 0.00 | 96 | 1019.1 |
| 20260504030640 | 59 | 340 | 0.0 | 0.0 | 0.00 | 0.00 | 0.00 | 96 | 1019.1 |
| 20260504030137 | 58 | 340 | 0.0 | 0.0 | 0.00 | 0.00 | 0.00 | 95 | 1019.0 |
| 20260504025634 | 59 | 340 | 0.0 | 0.0 | 0.00 | 0.00 | 0.00 | 95 | 1019.2 |
| 20260504025131 | 59 | 340 | 0.0 | 0.0 | 0.00 | 0.00 | 0.00 | 95 | 1019.2 |
| 20260504024628 | 59 | 340 | 0.0 | 0.0 | 0.00 | 0.00 | 0.00 | 94 | 1019.0 |
| 20260504024124 | 59 | 340 | 0.0 | 0.0 | 0.00 | 0.00 | 0.00 | 93 | 1018.9 |
| 20260504023621 | 59 | 340 | 0.0 | 0.0 | 0.00 | 0.00 | 0.00 | 93 | 1018.9 |
| 20260504023117 | 60 | 340 | 0.0 | 0.0 | 0.00 | 0.00 | 0.00 | 93 | 1019.0 |
| 20260504022614 | 60 | 340 | 0.0 | 0.0 | 0.00 | 0.00 | 0.00 | 92 | 1019.0 |
| 20260504022109 | 60 | 340 | 0.0 | 0.0 | 0.00 | 0.00 | 0.00 | 91 | 1018.8 |
| 20260504021608 | 60 | 340 | 0.0 | 0.0 | 0.00 | 0.00 | 0.00 | 91 | 1018.9 |
| 20260504021104 | 60 | 340 | 0.0 | 0.0 | 0.00 | 0.00 | 0.00 | 91 | 1018.8 |
| 20260504020601 | 61 | 340 | 0.0 | 0.0 | 0.00 | 0.00 | 0.00 | 90 | 1018.8 |
| 20260504020057 | 61 | 340 | 0.0 | 0.0 | 0.00 | 0.00 | 0.00 | 89 | 1018.3 |
| 20260504015554 | 61 | 340 | 0.0 | 0.0 | 0.00 | 0.00 | 0.00 | 88 | 1018.5 |
| 20260504015050 | 62 | 340 | 0.0 | 0.0 | 0.00 | 0.00 | 0.00 | 87 | 1018.6 |
| 20260504014546 | 62 | 340 | 0.0 | 0.0 | 0.00 | 0.00 | 0.00 | 86 | 1018.3 |
| 20260504014044 | 62 | 340 | 0.0 | 0.0 | 0.00 | 0.00 | 0.00 | 86 | 1018.3 |
| 20260504013541 | 63 | 340 | 0.0 | 0.0 | 0.00 | 0.00 | 0.00 | 85 | 1018.3 |
| 20260504013038 | 63 | 340 | 0.0 | 0.0 | 0.00 | 0.00 | 0.00 | 83 | 1018.4 |
| 20260504012535 | 63 | 340 | 0.0 | 0.0 | 0.00 | 0.00 | 0.00 | 82 | 1018.2 |
| 20260504012033 | 64 | 340 | 0.0 | 0.0 | 0.00 | 0.00 | 0.00 | 81 | 1018.3 |
| 20260504011530 | 64 | 340 | 0.0 | 0.0 | 0.00 | 0.00 | 0.00 | 80 | 1018.3 |
| 20260504011026 | 64 | 340 | 0.0 | 0.0 | 0.00 | 0.00 | 0.00 | 78 | 1018.1 |
| 20260504010522 | 64 | 340 | 0.0 | 0.0 | 0.00 | 0.00 | 0.00 | 75 | 1018.2 |
| 20260504010018 | 64 | 340 | 0.0 | 0.0 | 0.00 | 0.00 | 0.00 | 75 | 1017.8 |
| 20260504005515 | 65 | 340 | 0.0 | 0.0 | 0.00 | 0.00 | 0.00 | 74 | 1018.0 |
| 20260504005012 | 65 | 340 | 0.0 | 0.0 | 0.00 | 0.00 | 0.00 | 73 | 1018.2 |
| 20260504004510 | 65 | 340 | 0.0 | 0.0 | 0.00 | 0.00 | 0.00 | 72 | 1018.1 |
| 20260504004007 | 66 | 340 | 0.0 | 0.0 | 0.00 | 0.00 | 0.00 | 71 | 1018.0 |
| 20260504003503 | 66 | 340 | 0.0 | 0.0 | 0.00 | 0.00 | 0.00 | 71 | 1017.9 |
| 20260504003000 | 67 | 340 | 0.0 | 0.0 | 0.00 | 0.00 | 0.00 | 72 | 1017.8 |
| 20260504002457 | 67 | 340 | 0.0 | 0.0 | 0.00 | 0.00 | 0.00 | 70 | 1017.9 |
| 20260504001954 | 67 | 340 | 0.0 | 0.0 | 0.00 | 0.00 | 0.00 | 70 | 1017.7 |
| 20260504001451 | 68 | 340 | 0.0 | 0.0 | 0.00 | 0.00 | 0.00 | 69 | 1017.7 |
| 20260504000947 | 69 | 340 | 0.0 | 0.0 | 0.00 | 0.00 | 0.00 | 68 | 1017.9 |
| 20260504000445 | 70 | 339 | 0.0 | 0.0 | 0.00 | 0.00 | 0.00 | 64 | 1017.7 |
| 20260503235942 | 70 | 336 | 0.0 | 0.9 | 0.00 | 0.00 | 0.00 | 62 | 1017.8 |
| 20260503235439 | 71 | 341 | 0.0 | 0.0 | 0.00 | 0.00 | 0.00 | 59 | 1017.8 |
| 20260503234937 | 72 | 331 | 0.0 | 0.0 | 0.00 | 0.00 | 0.00 | 59 | 1017.8 |
| 20260503234435 | 72 | 283 | 2.6 | 2.6 | 0.00 | 0.00 | 0.00 | 55 | 1018.1 |
| 20260503233933 | 73 | 289 | 1.7 | 1.7 | 0.00 | 0.00 | 0.00 | 55 | 1018.0 |
| 20260503233429 | 73 | 313 | 0.9 | 0.9 | 0.00 | 0.00 | 0.00 | 55 | 1018.1 |
| 20260503232925 | 73 | 252 | 1.7 | 1.7 | 0.00 | 0.00 | 0.00 | 53 | 1018.0 |
| 20260503232422 | 73 | 278 | 0.9 | 0.9 | 0.00 | 0.00 | 0.00 | 52 | 1017.9 |
| 20260503231920 | 73 | 308 | 0.9 | 0.9 | 0.00 | 0.00 | 0.00 | 53 | 1018.0 |
| 20260503231417 | 73 | 292 | 1.7 | 1.7 | 0.00 | 0.00 | 0.00 | 52 | 1018.3 |
| 20260503230913 | 73 | 207 | 0.9 | 1.7 | 0.00 | 0.00 | 0.00 | 52 | 1018.2 |
| 20260503230410 | 74 | 287 | 1.7 | 1.7 | 0.00 | 0.00 | 0.00 | 50 | 1018.0 |
| 20260503225908 | 74 | 295 | 0.9 | 1.7 | 0.00 | 0.00 | 0.00 | 50 | 1018.0 |
| 20260503225403 | 74 | 242 | 0.9 | 1.7 | 0.00 | 0.00 | 0.00 | 49 | 1018.2 |
| 20260503224900 | 74 | 278 | 2.6 | 2.6 | 0.00 | 0.00 | 0.00 | 50 | 1018.3 |
| 20260503224357 | 74 | 298 | 2.6 | 2.6 | 0.00 | 0.00 | 0.00 | 50 | 1018.1 |
| 20260503223855 | 74 | 303 | 3.5 | 4.3 | 0.00 | 0.00 | 0.00 | 50 | 1018.2 |
| 20260503223353 | 74 | 273 | 3.5 | 4.3 | 0.00 | 0.00 | 0.00 | 49 | 1018.4 |
| 20260503222848 | 74 | 194 | 2.6 | 4.3 | 0.00 | 0.00 | 0.00 | 49 | 1018.5 |
| 20260503222347 | 75 | 268 | 1.7 | 1.7 | 0.00 | 0.00 | 0.00 | 48 | 1018.3 |
| 20260503221844 | 76 | 294 | 3.5 | 4.3 | 0.00 | 0.00 | 0.00 | 47 | 1018.3 |
| 20260503221343 | 76 | 246 | 2.6 | 2.6 | 0.00 | 0.00 | 0.00 | 46 | 1018.1 |
| 20260503220838 | 76 | 249 | 3.5 | 4.3 | 0.00 | 0.00 | 0.00 | 47 | 1018.5 |
| 20260503220335 | 76 | 308 | 0.9 | 1.7 | 0.00 | 0.00 | 0.00 | 49 | 1018.5 |
| 20260503215832 | 76 | 271 | 2.6 | 2.6 | 0.00 | 0.00 | 0.00 | 47 | 1018.5 |
| 20260503215329 | 76 | 265 | 1.7 | 1.7 | 0.00 | 0.00 | 0.00 | 48 | 1018.6 |
| 20260503214827 | 75 | 323 | 4.3 | 6.1 | 0.00 | 0.00 | 0.00 | 48 | 1018.7 |
| 20260503214324 | 76 | 298 | 1.7 | 2.6 | 0.00 | 0.00 | 0.00 | 47 | 1018.8 |
| 20260503213821 | 75 | 255 | 2.6 | 4.3 | 0.00 | 0.00 | 0.00 | 49 | 1018.7 |
| 20260503213319 | 76 | 303 | 1.7 | 1.7 | 0.00 | 0.00 | 0.00 | 47 | 1019.0 |
| 20260503212815 | 76 | 257 | 3.5 | 5.2 | 0.00 | 0.00 | 0.00 | 47 | 1019.1 |
| 20260503212313 | 77 | 260 | 4.3 | 7.0 | 0.00 | 0.00 | 0.00 | 47 | 1019.1 |
| 20260503211810 | 75 | 262 | 3.5 | 5.2 | 0.00 | 0.00 | 0.00 | 47 | 1019.2 |
| 20260503211308 | 75 | 227 | 3.5 | 6.1 | 0.00 | 0.00 | 0.00 | 47 | 1019.1 |
| 20260503210807 | 76 | 312 | 3.5 | 5.2 | 0.00 | 0.00 | 0.00 | 47 | 1019.2 |
| 20260503210305 | 76 | 234 | 0.9 | 1.7 | 0.00 | 0.00 | 0.00 | 47 | 1019.2 |
| 20260503205754 | 77 | 199 | 2.6 | 4.3 | 0.00 | 0.00 | 0.00 | 47 | 1019.2 |
| 20260503205251 | 76 | 273 | 1.7 | 2.6 | 0.00 | 0.00 | 0.00 | 48 | 1019.2 |
| 20260503204747 | 76 | 268 | 2.6 | 4.3 | 0.00 | 0.00 | 0.00 | 47 | 1019.6 |
| 20260503204245 | 75 | 313 | 0.9 | 1.7 | 0.00 | 0.00 | 0.00 | 45 | 1019.6 |
| 20260503203743 | 76 | 237 | 6.1 | 7.0 | 0.00 | 0.00 | 0.00 | 47 | 1019.8 |
| 20260503203240 | 76 | 286 | 3.5 | 5.2 | 0.00 | 0.00 | 0.00 | 47 | 1019.6 |
| 20260503202737 | 76 | 179 | 0.0 | 0.9 | 0.00 | 0.00 | 0.00 | 47 | 1019.7 |
| 20260503202235 | 76 | 257 | 0.9 | 1.7 | 0.00 | 0.00 | 0.00 | 47 | 1019.7 |
| 20260503201732 | 78 | 51 | 0.9 | 1.7 | 0.00 | 0.00 | 0.00 | 44 | 1019.8 |
| 20260503201229 | 78 | 350 | 1.7 | 2.6 | 0.00 | 0.00 | 0.00 | 44 | 1019.5 |
| 20260503200726 | 78 | 341 | 0.0 | 0.0 | 0.00 | 0.00 | 0.00 | 45 | 1020.0 |
| 20260503200222 | 77 | 289 | 4.3 | 7.0 | 0.00 | 0.00 | 0.00 | 45 | 1020.0 |
| 20260503195719 | 78 | 279 | 4.3 | 5.2 | 0.00 | 0.00 | 0.00 | 46 | 1020.1 |
| 20260503195216 | 78 | 314 | 0.9 | 0.9 | 0.00 | 0.00 | 0.00 | 44 | 1020.1 |
| 20260503194713 | 77 | 341 | 0.9 | 1.7 | 0.00 | 0.00 | 0.00 | 47 | 1020.1 |
| 20260503194209 | 76 | 244 | 4.3 | 5.2 | 0.00 | 0.00 | 0.00 | 47 | 1020.2 |
| 20260503193705 | 77 | 243 | 2.6 | 2.6 | 0.00 | 0.00 | 0.00 | 46 | 1020.3 |
| 20260503193201 | 76 | 296 | 1.7 | 1.7 | 0.00 | 0.00 | 0.00 | 46 | 1020.4 |
| 20260503192657 | 78 | 284 | 0.9 | 1.7 | 0.00 | 0.00 | 0.00 | 44 | 1020.4 |
| 20260503192152 | 77 | 357 | 1.7 | 1.7 | 0.00 | 0.00 | 0.00 | 46 | 1020.5 |
| 20260503191649 | 76 | 342 | 0.0 | 0.9 | 0.00 | 0.00 | 0.00 | 46 | 1020.7 |
| 20260503191147 | 76 | 232 | 2.6 | 2.6 | 0.00 | 0.00 | 0.00 | 47 | 1020.8 |
| 20260503190643 | 77 | 253 | 4.3 | 6.1 | 0.00 | 0.00 | 0.00 | 44 | 1020.7 |
| 20260503190140 | 77 | 340 | 0.9 | 1.7 | 0.00 | 0.00 | 0.00 | 42 | 1020.7 |
| 20260503185637 | 78 | 304 | 0.9 | 0.9 | 0.00 | 0.00 | 0.00 | 43 | 1020.9 |
| 20260503185132 | 77 | 335 | 0.0 | 0.0 | 0.00 | 0.00 | 0.00 | 45 | 1021.0 |
| 20260503184627 | 77 | 258 | 2.6 | 2.6 | 0.00 | 0.00 | 0.00 | 45 | 1020.8 |
| 20260503184124 | 76 | 299 | 2.6 | 4.3 | 0.00 | 0.00 | 0.00 | 46 | 1020.9 |
| 20260503183621 | 78 | 337 | 0.0 | 0.9 | 0.00 | 0.00 | 0.00 | 44 | 1021.3 |
| 20260503183118 | 77 | 234 | 2.6 | 2.6 | 0.00 | 0.00 | 0.00 | 43 | 1021.3 |
| 20260503182616 | 82 | 332 | 0.9 | 0.9 | 0.00 | 0.00 | 0.00 | 39 | 1021.4 |
| 20260503182114 | 79 | 356 | 0.0 | 0.9 | 0.00 | 0.00 | 0.00 | 37 | 1021.5 |
| 20260503181611 | 78 | 18 | 0.0 | 0.0 | 0.00 | 0.00 | 0.00 | 40 | 1021.6 |
| 20260503181108 | 78 | 9 | 0.9 | 0.9 | 0.00 | 0.00 | 0.00 | 40 | 1021.5 |
| 20260503180605 | 77 | 354 | 0.9 | 0.9 | 0.00 | 0.00 | 0.00 | 42 | 1021.5 |
| 20260503180103 | 77 | 310 | 0.9 | 1.7 | 0.00 | 0.00 | 0.00 | 44 | 1021.4 |
| 20260503175559 | 77 | 46 | 0.0 | 0.9 | 0.00 | 0.00 | 0.00 | 39 | 1021.4 |
| 20260503175056 | 78 | 93 | 0.9 | 0.9 | 0.00 | 0.00 | 0.00 | 38 | 1021.6 |
| 20260503174553 | 77 | 173 | 0.9 | 0.9 | 0.00 | 0.00 | 0.00 | 42 | 1021.7 |
| 20260503174050 | 77 | 64 | 0.9 | 0.9 | 0.00 | 0.00 | 0.00 | 41 | 1021.8 |